When you browse on this site, cookies collect data to enhance your experience and personalize the content and advertising you see.
Visit our Privacy Policy to learn more. By continuing to use the site, you agree to this use of cookies and data.
  • In Deutschland
  • Länderverzeichnis
  • Für 7 Tage
  • Wassertemperatur
  • Wetterkarte
  • Widgets
  • user-avatar
    Anmelden

    Stündliche Wetter Yalunina

    Heute, 19 Januar, Sonntag

    Zeit Temperatur Niederschläge Wind Luftdruck Luftfeuchtigkeit
    00:00 -8°C° 0 mm 2 m/S 745 mmHg 91%
    01:00 -9°C° 0 mm 2 m/S 745 mmHg 92%
    02:00 -9°C° 0 mm 1 m/S 746 mmHg 90%
    03:00 -10°C° 0 mm 1 m/S 747 mmHg 89%
    04:00 -11°C° 0 mm 1 m/S 748 mmHg 90%
    05:00 -11°C° 0 mm 0 m/S 748 mmHg 91%
    06:00 -11°C° 0 mm 0 m/S 748 mmHg 91%
    07:00 -12°C° 0 mm 0 m/S 748 mmHg 91%
    08:00 -11°C° 0 mm 1 m/S 748 mmHg 92%
    09:00 -11°C° 0 mm 1 m/S 749 mmHg 92%
    10:00 -10°C° 0 mm 1 m/S 749 mmHg 93%
    11:00 -9°C° 0 mm 1 m/S 749 mmHg 91%
    12:00 -9°C° 0 mm 1 m/S 749 mmHg 90%
    13:00 -8°C° 0 mm 1 m/S 749 mmHg 88%
    14:00 -9°C° 0 mm 2 m/S 749 mmHg 90%
    15:00 -9°C° 0 mm 2 m/S 748 mmHg 92%
    16:00 -9°C° 0 mm 2 m/S 748 mmHg 93%
    17:00 -9°C° 0.2 mm 2 m/S 748 mmHg 94%
    18:00 -8°C° 0.2 mm 2 m/S 747 mmHg 94%
    19:00 -9°C° 0.2 mm 3 m/S 747 mmHg 95%
    20:00 -9°C° 0.4 mm 3 m/S 747 mmHg 95%
    21:00 -9°C° 0.4 mm 3 m/S 746 mmHg 95%
    22:00 -9°C° 0.4 mm 3 m/S 746 mmHg 95%
    23:00 -8°C° 0.3 mm 3 m/S 745 mmHg 95%

    Morgen, 20 Januar, Montag

    Zeit Temperatur Niederschläge Wind Luftdruck Luftfeuchtigkeit
    00:00 -8°C° 0.3 mm 3 m/S 745 mmHg 95%
    01:00 -8°C° 0.3 mm 3 m/S 744 mmHg 95%
    02:00 -7°C° 0.3 mm 2 m/S 744 mmHg 96%
    03:00 -6°C° 0.3 mm 2 m/S 744 mmHg 96%
    04:00 -6°C° 0.3 mm 2 m/S 743 mmHg 96%
    05:00 -6°C° 0.3 mm 2 m/S 743 mmHg 96%
    06:00 -4°C° 0.3 mm 1 m/S 742 mmHg 97%
    07:00 -4°C° 0.3 mm 1 m/S 742 mmHg 97%
    08:00 -4°C° 0.3 mm 1 m/S 742 mmHg 96%
    09:00 -4°C° 0.3 mm 1 m/S 742 mmHg 96%
    10:00 -3°C° 0.3 mm 1 m/S 742 mmHg 95%
    11:00 -6°C° 0.2 mm 2 m/S 742 mmHg 95%
    12:00 -7°C° 0.2 mm 2 m/S 741 mmHg 94%
    13:00 -8°C° 0.2 mm 3 m/S 741 mmHg 93%
    14:00 -9°C° 0.1 mm 3 m/S 742 mmHg 94%
    15:00 -9°C° 0.1 mm 2 m/S 742 mmHg 94%
    16:00 -10°C° 0.1 mm 2 m/S 742 mmHg 95%
    17:00 -12°C° 0 mm 2 m/S 742 mmHg 95%
    18:00 -13°C° 0 mm 2 m/S 742 mmHg 96%
    19:00 -14°C° 0 mm 2 m/S 742 mmHg 97%
    20:00 -15°C° 0 mm 2 m/S 742 mmHg 97%
    21:00 -14°C° 0 mm 1 m/S 742 mmHg 97%
    22:00 -14°C° 0 mm 1 m/S 743 mmHg 97%
    23:00 -15°C° 0 mm 1 m/S 742 mmHg 98%

    übermorgen, 21 Januar, Dienstag

    Zeit Temperatur Niederschläge Wind Luftdruck Luftfeuchtigkeit
    00:00 -15°C° 0 mm 1 m/S 742 mmHg 98%
    01:00 -16°C° 0 mm 0 m/S 742 mmHg 98%
    02:00 -16°C° 0 mm 0 m/S 742 mmHg 98%
    03:00 -16°C° 0 mm 1 m/S 742 mmHg 98%
    04:00 -17°C° 0 mm 1 m/S 742 mmHg 98%
    05:00 -17°C° 0 mm 1 m/S 741 mmHg 98%
    06:00 -17°C° 0 mm 1 m/S 741 mmHg 98%
    07:00 -17°C° 0 mm 1 m/S 741 mmHg 98%
    08:00 -18°C° 0 mm 2 m/S 741 mmHg 97%
    09:00 -18°C° 0 mm 2 m/S 741 mmHg 96%
    10:00 -17°C° 0 mm 2 m/S 741 mmHg 95%
    11:00 -16°C° 0 mm 2 m/S 740 mmHg 94%
    12:00 -17°C° 0 mm 3 m/S 739 mmHg 93%
    13:00 -16°C° 0 mm 3 m/S 739 mmHg 91%
    14:00 -16°C° 0 mm 3 m/S 739 mmHg 93%
    15:00 -17°C° 0 mm 3 m/S 738 mmHg 94%
    16:00 -17°C° 0 mm 3 m/S 738 mmHg 95%
    17:00 -17°C° 0 mm 3 m/S 737 mmHg 95%
    18:00 -17°C° 0 mm 3 m/S 737 mmHg 95%
    19:00 -17°C° 0 mm 3 m/S 736 mmHg 96%
    20:00 -17°C° 0 mm 3 m/S 735 mmHg 96%
    21:00 -17°C° 0 mm 3 m/S 735 mmHg 96%
    22:00 -18°C° 0 mm 4 m/S 734 mmHg 96%
    23:00 -17°C° 0 mm 4 m/S 733 mmHg 95%

    22 Januar, Mittwoch

    Zeit Temperatur Niederschläge Wind Luftdruck Luftfeuchtigkeit
    00:00 -17°C° 0 mm 4 m/S 732 mmHg 95%
    01:00 -16°C° 0 mm 4 m/S 732 mmHg 94%
    02:00 -16°C° 0 mm 4 m/S 731 mmHg 93%
    03:00 -15°C° 0 mm 4 m/S 730 mmHg 92%
    04:00 -15°C° 0 mm 5 m/S 729 mmHg 91%
    05:00 -14°C° 0.1 mm 5 m/S 728 mmHg 92%
    06:00 -13°C° 0.1 mm 5 m/S 727 mmHg 92%
    07:00 -13°C° 0.1 mm 5 m/S 726 mmHg 92%
    08:00 -12°C° 0.2 mm 5 m/S 725 mmHg 91%
    09:00 -11°C° 0.2 mm 5 m/S 725 mmHg 91%
    10:00 -10°C° 0.2 mm 5 m/S 724 mmHg 90%
    11:00 -8°C° 0.1 mm 5 m/S 723 mmHg 90%
    12:00 -8°C° 0.1 mm 5 m/S 723 mmHg 90%
    13:00 -7°C° 0.1 mm 5 m/S 722 mmHg 91%
    14:00 -7°C° 0.1 mm 5 m/S 722 mmHg 90%
    15:00 -7°C° 0.1 mm 4 m/S 721 mmHg 90%
    16:00 -7°C° 0.1 mm 4 m/S 721 mmHg 90%
    17:00 -7°C° 0 mm 4 m/S 721 mmHg 90%
    18:00 -8°C° 0 mm 4 m/S 720 mmHg 90%
    19:00 -8°C° 0 mm 4 m/S 720 mmHg 91%
    20:00 -8°C° 0 mm 4 m/S 720 mmHg 90%
    21:00 -7°C° 0 mm 4 m/S 720 mmHg 90%
    22:00 -7°C° 0 mm 4 m/S 719 mmHg 90%
    23:00 -6°C° 0 mm 3 m/S 719 mmHg 90%

    23 Januar, Donnerstag

    Zeit Temperatur Niederschläge Wind Luftdruck Luftfeuchtigkeit
    00:00 -7°C° 0 mm 3 m/S 719 mmHg 90%
    01:00 -7°C° 0 mm 3 m/S 719 mmHg 90%
    02:00 -8°C° 0 mm 4 m/S 719 mmHg 89%
    03:00 -9°C° 0 mm 4 m/S 720 mmHg 88%
    04:00 -9°C° 0 mm 4 m/S 720 mmHg 87%
    05:00 -11°C° 0 mm 5 m/S 720 mmHg 87%
    06:00 -11°C° 0 mm 5 m/S 721 mmHg 86%
    07:00 -11°C° 0 mm 5 m/S 721 mmHg 86%
    08:00 -11°C° 0 mm 5 m/S 722 mmHg 86%
    09:00 -11°C° 0 mm 5 m/S 722 mmHg 85%
    10:00 -12°C° 0 mm 5 m/S 723 mmHg 84%
    11:00 -11°C° 0 mm 5 m/S 723 mmHg 82%
    12:00 -10°C° 0 mm 5 m/S 724 mmHg 80%
    13:00 -8°C° 0 mm 5 m/S 724 mmHg 78%
    14:00 -9°C° 0 mm 4 m/S 725 mmHg 81%
    15:00 -10°C° 0 mm 4 m/S 725 mmHg 84%
    16:00 -10°C° 0 mm 3 m/S 726 mmHg 86%
    17:00 -10°C° 0 mm 3 m/S 726 mmHg 87%
    18:00 -12°C° 0 mm 3 m/S 726 mmHg 89%
    19:00 -13°C° 0 mm 3 m/S 726 mmHg 90%
    20:00 -13°C° 0 mm 3 m/S 727 mmHg 90%
    21:00 -13°C° 0 mm 3 m/S 727 mmHg 91%
    22:00 -14°C° 0 mm 3 m/S 728 mmHg 91%
    23:00 -14°C° 0 mm 3 m/S 728 mmHg 92%

    24 Januar, Freitag

    Zeit Temperatur Niederschläge Wind Luftdruck Luftfeuchtigkeit
    00:00 -13°C° 0 mm 2 m/S 728 mmHg 92%
    01:00 -14°C° 0 mm 2 m/S 729 mmHg 92%
    02:00 -14°C° 0 mm 2 m/S 729 mmHg 92%
    03:00 -14°C° 0 mm 2 m/S 729 mmHg 93%
    04:00 -15°C° 0 mm 2 m/S 729 mmHg 93%
    05:00 -15°C° 0 mm 2 m/S 729 mmHg 93%
    06:00 -15°C° 0 mm 2 m/S 729 mmHg 93%
    07:00 -17°C° 0 mm 3 m/S 730 mmHg 93%
    08:00 -16°C° 0 mm 3 m/S 730 mmHg 91%
    09:00 -16°C° 0 mm 3 m/S 730 mmHg 88%
    10:00 -17°C° 0 mm 4 m/S 730 mmHg 86%
    11:00 -16°C° 0 mm 4 m/S 730 mmHg 84%
    12:00 -15°C° 0 mm 4 m/S 730 mmHg 83%
    13:00 -14°C° 0 mm 4 m/S 730 mmHg 81%
    14:00 -15°C° 0 mm 4 m/S 730 mmHg 82%
    15:00 -15°C° 0 mm 4 m/S 730 mmHg 83%
    16:00 -16°C° 0 mm 4 m/S 730 mmHg 85%
    17:00 -17°C° 0 mm 4 m/S 730 mmHg 86%
    18:00 -17°C° 0 mm 4 m/S 730 mmHg 87%
    19:00 -18°C° 0 mm 4 m/S 730 mmHg 88%
    20:00 -18°C° 0 mm 4 m/S 730 mmHg 88%
    21:00 -18°C° 0 mm 4 m/S 731 mmHg 88%
    22:00 -18°C° 0 mm 4 m/S 731 mmHg 88%
    23:00 -18°C° 0 mm 4 m/S 731 mmHg 89%
    Mehr zeigen